Madison, SD

2:14 PM CST on November 21, 2019 (GMT -0600)
Madison Municipal

Weather History for KMDS - September, 2019

Change the Weather History Date:

Monday, September 30, 2019

  Actual Average Record
Temperature  
Mean Temperature 64 °F -  
Max Temperature 78 °F 69 °F 82 °F (2013)
Min Temperature 51 °F 42 °F 35 °F (2011)
Growing Degree Days 14 (Base 50)    
Moisture  
Dew Point 67 °F    
Average Humidity 99    
Maximum Humidity 100    
Minimum Humidity 83    
Precipitation  
Precipitation 0.00 in - - ()
Sea Level Pressure  
Sea Level Pressure 29.75 in    
Wind  
Wind Speed 19 mph ()    
Max Wind Speed 25 mph    
Max Gust Speed 37 mph    
Visibility 10.0 miles    
Events      
Averages and records for this station are not official NWS values.
T = Trace of Precipitation, MM = Missing Value Source: Averaged Metar Reports

Daily Weather History Graph

Daily Weather History Graph

Search for Another Location

Airport or City:

Astronomy

Sep. 30, 2019 Rise Set
Actual Time 7:24 AM CDT 7:11 PM CDT
Civil Twilight 6:55 AM CDT 7:40 PM CDT
Nautical Twilight 6:22 AM CDT 8:13 PM CDT
Astronomical Twilight 5:48 AM CDT 8:47 PM CDT
Moon 9:33 AM CDT (9/30) 8:43 PM CDT (9/30)
Length of Visible Light 12h 44m
Length of Day
11h 46m
Waxing Crescent, 6% of the Moon is Illuminated
Sep 30
Waxing Crescent
Oct 5
First Quarter
Oct 13
Full
Oct 21
Last Quarter
Oct 27
New

Hourly Weather History & Observations

Time (CDT) Temp. Dew Point Humidity Pressure Visibility Wind Dir Wind Speed Gust Speed Precip Events Conditions
12:15 AM 69.8 °F 69.8 °F 100% 29.72 in 10.0 mi South 21.9 mph 31.1 mph N/A   Overcast
12:20 AM 69.8 °F 69.8 °F 100% 29.72 in 10.0 mi South 20.7 mph 31.1 mph N/A   Overcast
12:35 AM 71.6 °F 71.6 °F 100% 29.71 in 10.0 mi South 25.3 mph 33.4 mph N/A   Overcast
12:55 AM 71.6 °F 71.6 °F 100% 29.70 in 10.0 mi South 24.2 mph 33.4 mph N/A   Overcast
1:00 AM 71.6 °F 71.6 °F 100% 29.70 in 10.0 mi South 24.2 mph 33.4 mph N/A   Overcast
1:15 AM 71.6 °F 71.6 °F 100% 29.70 in 10.0 mi South 25.3 mph 35.7 mph N/A   Overcast
1:35 AM 71.6 °F 71.6 °F 100% 29.69 in 10.0 mi South 21.9 mph 32.2 mph N/A   Overcast
1:40 AM 71.6 °F 71.6 °F 100% 29.69 in 10.0 mi South 24.2 mph 33.4 mph N/A   Overcast
1:55 AM 71.6 °F 71.6 °F 100% 29.69 in 10.0 mi South 23.0 mph 31.1 mph N/A   Overcast
2:00 AM 71.6 °F 71.6 °F 100% 29.69 in 10.0 mi South 20.7 mph 31.1 mph N/A   Overcast
2:35 AM 71.6 °F 71.6 °F 100% 29.68 in 10.0 mi South 23.0 mph 29.9 mph N/A   Mostly Cloudy
2:55 AM 71.6 °F 71.6 °F 100% 29.68 in 10.0 mi South 20.7 mph 27.6 mph N/A   Overcast
3:00 AM 71.6 °F 71.6 °F 100% 29.67 in 10.0 mi South 20.7 mph 28.8 mph N/A   Overcast
3:15 AM 71.6 °F 71.6 °F 100% 29.66 in 10.0 mi South 24.2 mph 29.9 mph N/A   Mostly Cloudy
3:20 AM 71.6 °F 71.6 °F 100% 29.66 in 10.0 mi South 25.3 mph 36.8 mph N/A   Mostly Cloudy
3:35 AM 71.6 °F 71.6 °F 100% 29.66 in 10.0 mi South 20.7 mph 29.9 mph N/A   Mostly Cloudy
3:40 AM 71.6 °F 71.6 °F 100% 29.66 in 10.0 mi South 21.9 mph 28.8 mph N/A   Mostly Cloudy
3:55 AM 71.6 °F 71.6 °F 100% 29.66 in 10.0 mi South 19.6 mph 27.6 mph N/A   Partly Cloudy
4:00 AM 71.6 °F 71.6 °F 100% 29.65 in 10.0 mi South 23.0 mph - N/A   Partly Cloudy
4:15 AM 71.6 °F 71.6 °F 100% 29.65 in 10.0 mi South 20.7 mph 28.8 mph N/A   Partly Cloudy
4:35 AM 71.6 °F 71.6 °F 100% 29.65 in 10.0 mi South 19.6 mph 27.6 mph N/A   Clear
4:55 AM 71.6 °F 71.6 °F 100% 29.65 in 10.0 mi South 20.7 mph 26.5 mph N/A   Clear
5:00 AM 71.6 °F 71.6 °F 100% 29.65 in 10.0 mi South 19.6 mph 26.5 mph N/A   Clear
5:15 AM 71.6 °F 71.6 °F 100% 29.65 in 10.0 mi South 18.4 mph 26.5 mph N/A   Clear
5:20 AM 71.6 °F 71.6 °F 100% 29.65 in 10.0 mi South 19.6 mph 27.6 mph N/A   Clear
5:35 AM 71.6 °F 71.6 °F 100% 29.65 in 10.0 mi South 18.4 mph 26.5 mph N/A   Scattered Clouds
5:55 AM 71.6 °F 71.6 °F 100% 29.65 in 10.0 mi South 17.3 mph 27.6 mph N/A   Partly Cloudy
6:15 AM 71.6 °F 71.6 °F 100% 29.66 in 10.0 mi South 16.1 mph 20.7 mph N/A   Clear
6:20 AM 71.6 °F 71.6 °F 100% 29.66 in 10.0 mi South 16.1 mph 23.0 mph N/A   Partly Cloudy
6:35 AM 71.6 °F 71.6 °F 100% 29.66 in 10.0 mi South 16.1 mph 23.0 mph N/A   Clear
6:40 AM 71.6 °F 71.6 °F 100% 29.66 in 10.0 mi South 15.0 mph 21.9 mph N/A   Clear
6:55 AM 71.6 °F 71.6 °F 100% 29.66 in 10.0 mi South 17.3 mph 21.9 mph N/A   Clear
7:15 AM 71.6 °F 71.6 °F 100% 29.66 in 10.0 mi South 15.0 mph 21.9 mph N/A   Clear
7:35 AM 71.6 °F 71.6 °F 100% 29.66 in 10.0 mi South 15.0 mph 19.6 mph N/A   Clear
7:40 AM 71.6 °F 71.6 °F 100% 29.66 in 10.0 mi South 13.8 mph 19.6 mph N/A   Clear
7:55 AM 71.6 °F 71.6 °F 100% 29.67 in 10.0 mi South 15.0 mph 20.7 mph N/A   Clear
8:00 AM 71.6 °F 71.6 °F 100% 29.67 in 10.0 mi SSW 11.5 mph 20.7 mph N/A   Partly Cloudy
8:15 AM 71.6 °F 71.6 °F 100% 29.66 in 10.0 mi South 17.3 mph 23.0 mph N/A   Scattered Clouds
8:20 AM 71.6 °F 71.6 °F 100% 29.66 in 10.0 mi South 15.0 mph 23.0 mph N/A   Scattered Clouds
8:35 AM 71.6 °F 71.6 °F 100% 29.67 in 10.0 mi South 15.0 mph 21.9 mph N/A   Clear
8:40 AM 73.4 °F 73.4 °F 100% 29.67 in 10.0 mi South 16.1 mph 24.2 mph N/A   Clear
8:55 AM 73.4 °F 73.4 °F 100% 29.67 in 10.0 mi SSW 16.1 mph 21.9 mph N/A   Partly Cloudy
9:15 AM 75.2 °F 75.2 °F 100% 29.67 in 10.0 mi SSW 18.4 mph 26.5 mph N/A   Mostly Cloudy
9:20 AM 73.4 °F 73.4 °F 100% 29.67 in 10.0 mi SSW 18.4 mph 26.5 mph N/A   Mostly Cloudy
9:35 AM 75.2 °F 75.2 °F 100% 29.67 in 10.0 mi SSW 19.6 mph 28.8 mph N/A   Mostly Cloudy
9:55 AM 75.2 °F 75.2 °F 100% 29.67 in 10.0 mi SSW 19.6 mph 28.8 mph N/A   Overcast
10:15 AM 75.2 °F 75.2 °F 100% 29.67 in 10.0 mi SSW 16.1 mph 25.3 mph N/A   Overcast
10:20 AM 75.2 °F 75.2 °F 100% 29.67 in 10.0 mi SSW 17.3 mph 24.2 mph N/A   Overcast
10:35 AM 75.2 °F 75.2 °F 100% 29.67 in 10.0 mi SSW 23.0 mph 27.6 mph N/A   Overcast
10:55 AM 75.2 °F 75.2 °F 100% 29.67 in 10.0 mi SW 23.0 mph 29.9 mph N/A   Overcast
11:00 AM 75.2 °F 75.2 °F 100% 29.67 in 10.0 mi SW 19.6 mph 29.9 mph N/A   Overcast
11:15 AM 77.0 °F 75.2 °F 94% 29.67 in 10.0 mi SW 20.7 mph 27.6 mph N/A   Mostly Cloudy
11:40 AM 77.0 °F 75.2 °F 94% 29.67 in 10.0 mi SW 19.6 mph 24.2 mph N/A   Mostly Cloudy
11:55 AM 77.0 °F 75.2 °F 94% 29.68 in 10.0 mi SW 20.7 mph 28.8 mph N/A   Overcast
12:15 PM 77.0 °F 75.2 °F 94% 29.68 in 10.0 mi SW 17.3 mph 28.8 mph N/A   Overcast
12:35 PM 78.8 °F 73.4 °F 83% 29.68 in 10.0 mi SW 21.9 mph 27.6 mph N/A   Mostly Cloudy
12:40 PM 78.8 °F 73.4 °F 83% 29.69 in 10.0 mi SW 23.0 mph 31.1 mph N/A   Mostly Cloudy
12:55 PM 78.8 °F 73.4 °F 83% 29.69 in 10.0 mi WSW 24.2 mph 29.9 mph N/A   Mostly Cloudy
1:15 PM 78.8 °F 73.4 °F 83% 29.70 in 10.0 mi WSW 18.4 mph 28.8 mph N/A   Mostly Cloudy
1:20 PM 78.8 °F 73.4 °F 83% 29.70 in 10.0 mi WSW 18.4 mph 24.2 mph N/A   Scattered Clouds
1:35 PM 75.2 °F 73.4 °F 94% 29.70 in 10.0 mi WSW 18.4 mph 28.8 mph N/A   Mostly Cloudy
1:55 PM 75.2 °F 73.4 °F 94% 29.71 in 10.0 mi West 17.3 mph 23.0 mph N/A   Overcast
2:00 PM 75.2 °F 73.4 °F 94% 29.71 in 10.0 mi West 17.3 mph 23.0 mph N/A   Mostly Cloudy
2:15 PM 73.4 °F 73.4 °F 100% 29.72 in 10.0 mi West 17.3 mph 21.9 mph N/A   Mostly Cloudy
2:20 PM 73.4 °F 71.6 °F 94% 29.72 in 10.0 mi West 21.9 mph 26.5 mph N/A   Mostly Cloudy
2:35 PM 71.6 °F 71.6 °F 100% 29.73 in 10.0 mi West 17.3 mph 25.3 mph N/A   Mostly Cloudy
2:55 PM 68.0 °F 68.0 °F 100% 29.74 in 10.0 mi West 16.1 mph - N/A   Overcast
3:00 PM 68.0 °F 68.0 °F 100% 29.75 in 10.0 mi West 13.8 mph 20.7 mph N/A   Overcast
3:15 PM 66.2 °F 66.2 °F 100% 29.75 in 10.0 mi WNW 18.4 mph 23.0 mph N/A   Overcast
3:20 PM 66.2 °F 66.2 °F 100% 29.76 in 10.0 mi West 18.4 mph 24.2 mph N/A   Overcast
3:35 PM 66.2 °F 66.2 °F 100% 29.76 in 10.0 mi WNW 18.4 mph 21.9 mph N/A   Mostly Cloudy
3:40 PM 66.2 °F 66.2 °F 100% 29.77 in 10.0 mi West 16.1 mph 21.9 mph N/A   Overcast
3:55 PM 64.4 °F 64.4 °F 100% 29.78 in 10.0 mi WNW 18.4 mph 23.0 mph N/A   Overcast
4:00 PM 64.4 °F 64.4 °F 100% 29.78 in 10.0 mi WNW 16.1 mph 23.0 mph N/A   Overcast
4:15 PM 62.6 °F 62.6 °F 100% 29.79 in 10.0 mi NW 12.7 mph - N/A   Mostly Cloudy
4:35 PM 62.6 °F 62.6 °F 100% 29.80 in 10.0 mi WNW 17.3 mph - N/A   Overcast
4:55 PM 60.8 °F 60.8 °F 100% 29.81 in 10.0 mi NW 18.4 mph 21.9 mph N/A   Overcast
5:00 PM 60.8 °F 60.8 °F 100% 29.81 in 10.0 mi NW 17.3 mph 21.9 mph N/A   Overcast
5:15 PM 60.8 °F 60.8 °F 100% 29.82 in 10.0 mi WNW 17.3 mph 23.0 mph N/A   Overcast
5:20 PM 60.8 °F 60.8 °F 100% 29.82 in 10.0 mi NW 17.3 mph 23.0 mph N/A   Overcast
5:35 PM 59.0 °F 59.0 °F 100% 29.83 in 10.0 mi NW 16.1 mph 23.0 mph N/A   Overcast
5:55 PM 59.0 °F 59.0 °F 100% 29.83 in 10.0 mi NW 15.0 mph 23.0 mph N/A   Overcast
6:15 PM 59.0 °F 59.0 °F 100% 29.84 in 10.0 mi NNW 16.1 mph 21.9 mph N/A   Mostly Cloudy
6:20 PM 59.0 °F 59.0 °F 100% 29.84 in 10.0 mi NNW 16.1 mph 21.9 mph N/A   Overcast
6:35 PM 59.0 °F 59.0 °F 100% 29.85 in 10.0 mi NNW 13.8 mph 23.0 mph N/A   Overcast
6:55 PM 57.2 °F 57.2 °F 100% 29.86 in 10.0 mi NNW 13.8 mph 20.7 mph N/A   Overcast
7:00 PM 57.2 °F 57.2 °F 100% 29.86 in 10.0 mi NNW 17.3 mph 21.9 mph N/A   Overcast
7:15 PM 57.2 °F 57.2 °F 100% 29.86 in 10.0 mi NNW 16.1 mph 21.9 mph N/A   Overcast
7:35 PM 57.2 °F 57.2 °F 100% 29.88 in 10.0 mi NNW 15.0 mph 23.0 mph N/A   Overcast
7:40 PM 57.2 °F 57.2 °F 100% 29.88 in 10.0 mi NNW 15.0 mph 23.0 mph N/A   Overcast
7:55 PM 57.2 °F 57.2 °F 100% 29.89 in 10.0 mi NNW 19.6 mph 23.0 mph N/A   Overcast
8:15 PM 55.4 °F 55.4 °F 100% 29.91 in 10.0 mi NNW 16.1 mph 24.2 mph N/A   Overcast
8:35 PM 55.4 °F 55.4 °F 100% 29.92 in 10.0 mi North 20.7 mph 28.8 mph N/A   Overcast
8:40 PM 55.4 °F 55.4 °F 100% 29.92 in 10.0 mi North 20.7 mph 28.8 mph N/A   Overcast
8:55 PM 55.4 °F 55.4 °F 100% 29.93 in 10.0 mi North 16.1 mph 23.0 mph N/A   Overcast
9:00 PM 55.4 °F 55.4 °F 100% 29.93 in 10.0 mi NNW 16.1 mph 23.0 mph N/A   Overcast
9:15 PM 55.4 °F 55.4 °F 100% 29.92 in 10.0 mi North 19.6 mph 25.3 mph N/A   Overcast
9:35 PM 53.6 °F 53.6 °F 100% 29.93 in 10.0 mi North 21.9 mph 26.5 mph N/A   Overcast
9:40 PM 55.4 °F 55.4 °F 100% 29.92 in 10.0 mi North 17.3 mph 26.5 mph N/A   Overcast
9:55 PM 53.6 °F 53.6 °F 100% 29.91 in 10.0 mi North 25.3 mph 32.2 mph N/A   Overcast
10:00 PM 53.6 °F 53.6 °F 100% 29.91 in 10.0 mi North 20.7 mph 32.2 mph N/A   Overcast
10:15 PM 53.6 °F 53.6 °F 100% 29.92 in 10.0 mi NNE 18.4 mph 29.9 mph N/A   Overcast
10:40 PM 53.6 °F 53.6 °F 100% 29.91 in 10.0 mi North 19.6 mph 27.6 mph N/A   Overcast
10:55 PM 53.6 °F 53.6 °F 100% 29.91 in 10.0 mi NNE 23.0 mph 29.9 mph N/A   Overcast
11:00 PM 53.6 °F 53.6 °F 100% 29.92 in 10.0 mi North 21.9 mph 29.9 mph N/A   Overcast
11:15 PM 53.6 °F 53.6 °F 100% 29.91 in 10.0 mi North 21.9 mph 31.1 mph N/A   Overcast
11:35 PM 51.8 °F 51.8 °F 100% 29.92 in 10.0 mi NNE 20.7 mph 26.5 mph N/A   Overcast
11:55 PM 51.8 °F 51.8 °F 100% 29.97 in 10.0 mi NNE 11.5 mph 23.0 mph N/A   Overcast